| time (UTC) | temp F | wind direction | speed MPH | gust MPH | rain 1hr in | rain 24hr in | rain mn in | humidity % | barometer mb |
| 20260831181701 | 66 | 110 | 2.0 | 6.0 | 0.00 | 1.11 | 0.87 | 85 | 1012.5 |
| 20260831181134 | 66 | 105 | 2.0 | 6.0 | 0.00 | 1.11 | 0.87 | 85 | 1012.2 |
| 20260831180613 | 66 | 103 | 2.0 | 4.0 | 0.00 | 1.11 | 0.87 | 85 | 1012.3 |
| 20260831180048 | 66 | 84 | 2.0 | 4.0 | 0.00 | 1.11 | 0.87 | 85 | 1012.3 |
| 20260831175519 | 66 | 111 | 3.0 | 6.0 | 0.00 | 1.11 | 0.87 | 85 | 1012.2 |
| 20260831175018 | 66 | 113 | 3.0 | 6.0 | 0.00 | 1.11 | 0.87 | 85 | 1012.2 |
| 20260831174512 | 66 | 94 | 2.0 | 4.0 | 0.00 | 1.11 | 0.87 | 85 | 1012.2 |
| 20260831174011 | 66 | 106 | 2.0 | 4.0 | 0.00 | 1.11 | 0.87 | 85 | 1012.1 |
| 20260831173443 | 65 | 116 | 2.0 | 4.0 | 0.00 | 1.11 | 0.87 | 85 | 1012.1 |
| 20260831173149 | 65 | 123 | 2.0 | 4.0 | 0.00 | 1.11 | 0.87 | 85 | 1012.2 |
| 20260831172351 | 65 | 139 | 2.0 | 3.0 | 0.00 | 1.11 | 0.87 | 85 | 1012.3 |
| 20260831171826 | 66 | 140 | 1.0 | 3.0 | 0.00 | 1.11 | 0.87 | 84 | 1012.3 |
| 20260831171257 | 66 | 144 | 1.0 | 3.0 | 0.00 | 1.11 | 0.87 | 85 | 1012.3 |
| 20260831170755 | 67 | 146 | 2.0 | 4.0 | 0.00 | 1.11 | 0.87 | 85 | 1012.3 |
| 20260831170226 | 67 | 148 | 1.0 | 4.0 | 0.00 | 1.11 | 0.87 | 85 | 1012.2 |
| 20260831165725 | 67 | 144 | 1.0 | 3.0 | 0.00 | 1.11 | 0.87 | 85 | 1012.2 |
| 20260831165216 | 66 | 144 | 1.0 | 3.0 | 0.00 | 1.11 | 0.87 | 85 | 1012.2 |
| 20260831164715 | 66 | 144 | 0.0 | 2.0 | 0.00 | 1.11 | 0.87 | 85 | 1012.0 |
| 20260831164210 | 66 | 145 | 1.0 | 3.0 | 0.00 | 1.11 | 0.87 | 85 | 1012.1 |
| 20260831164206 | 66 | 145 | 0.0 | 2.0 | 0.00 | 1.11 | 0.87 | 85 | 1012.0 |
| 20260831163137 | 67 | 146 | 1.0 | 3.0 | 0.00 | 1.11 | 0.87 | 85 | 1012.0 |
| 20260831162635 | 67 | 148 | 1.0 | 3.0 | 0.00 | 1.11 | 0.87 | 85 | 1011.9 |
| 20260831162106 | 67 | 150 | 1.0 | 3.0 | 0.00 | 1.12 | 0.87 | 85 | 1011.9 |
| 20260831161604 | 67 | 150 | 1.0 | 3.0 | 0.00 | 1.12 | 0.87 | 85 | 1011.9 |
| 20260831161036 | 67 | 151 | 0.0 | 3.0 | 0.00 | 1.12 | 0.87 | 85 | 1011.9 |
| 20260831160508 | 67 | 153 | 0.0 | 2.0 | 0.00 | 1.12 | 0.87 | 85 | 1011.9 |
| 20260831160006 | 67 | 153 | 1.0 | 3.0 | 0.00 | 1.12 | 0.87 | 85 | 1011.8 |
| 20260831155440 | 66 | 153 | 0.0 | 3.0 | 0.00 | 1.12 | 0.87 | 85 | 1011.9 |
| 20260831154912 | 66 | 153 | 0.0 | 2.0 | 0.00 | 1.13 | 0.87 | 85 | 1011.7 |
| 20260831154410 | 66 | 153 | 0.0 | 2.0 | 0.00 | 1.13 | 0.87 | 85 | 1011.7 |
| 20260831153843 | 66 | 153 | 0.0 | 2.0 | 0.00 | 1.14 | 0.87 | 85 | 1011.5 |
| 20260831153316 | 66 | 153 | 0.0 | 1.0 | 0.00 | 1.15 | 0.87 | 85 | 1011.5 |
| 20260831152813 | 66 | 153 | 0.0 | 2.0 | 0.00 | 1.15 | 0.87 | 85 | 1011.4 |
| 20260831152248 | 65 | 153 | 0.0 | 2.0 | 0.00 | 1.16 | 0.87 | 85 | 1011.4 |
| 20260831151720 | 65 | 153 | 1.0 | 3.0 | 0.00 | 1.16 | 0.87 | 85 | 1011.5 |
| 20260831151217 | 65 | 153 | 1.0 | 3.0 | 0.00 | 1.16 | 0.87 | 85 | 1011.5 |
| 20260831150945 | 65 | 153 | 1.0 | 2.0 | 0.00 | 1.17 | 0.87 | 85 | 1011.3 |
| 20260831150829 | 65 | 152 | 0.0 | 2.0 | 0.00 | 1.17 | 0.87 | 85 | 1011.1 |
| 20260831145700 | 65 | 152 | 0.0 | 2.0 | 0.00 | 1.17 | 0.87 | 85 | 1011.1 |
| 20260831145202 | 65 | 152 | 1.0 | 3.0 | 0.00 | 1.17 | 0.87 | 85 | 1011.1 |
| 20260831144634 | 65 | 152 | 1.0 | 5.0 | 0.00 | 1.17 | 0.87 | 85 | 1011.1 |
| 20260831144132 | 66 | 151 | 1.0 | 5.0 | 0.00 | 1.17 | 0.87 | 84 | 1011.0 |
| 20260831143606 | 66 | 146 | 1.0 | 4.0 | 0.00 | 1.17 | 0.87 | 85 | 1011.0 |
| 20260831143102 | 67 | 145 | 1.0 | 4.0 | 0.00 | 1.17 | 0.87 | 85 | 1011.0 |
| 20260831142559 | 67 | 87 | 0.0 | 3.0 | 0.00 | 1.17 | 0.87 | 85 | 1010.8 |
| 20260831142052 | 67 | 58 | 0.0 | 0.0 | 0.00 | 1.17 | 0.87 | 85 | 1010.9 |
| 20260831141550 | 67 | 56 | 0.0 | 0.0 | 0.00 | 1.17 | 0.87 | 85 | 1010.8 |
| 20260831141252 | 67 | 55 | 0.0 | 0.0 | 0.00 | 1.17 | 0.87 | 85 | 1010.7 |
| 20260831140520 | 67 | 53 | 0.0 | 0.0 | 0.00 | 1.17 | 0.87 | 85 | 1010.7 |
| 20260831140224 | 67 | 49 | 0.0 | 0.0 | 0.00 | 1.17 | 0.87 | 85 | 1010.6 |
| 20260831135449 | 67 | 48 | 0.0 | 0.0 | 0.00 | 1.17 | 0.87 | 85 | 1010.6 |
| 20260831134924 | 67 | 46 | 0.0 | 0.0 | 0.00 | 1.17 | 0.87 | 85 | 1010.5 |
| 20260831134400 | 67 | 46 | 0.0 | 0.0 | 0.00 | 1.17 | 0.87 | 85 | 1010.3 |
| 20260831133858 | 67 | 45 | 0.0 | 0.0 | 0.00 | 1.17 | 0.87 | 85 | 1010.4 |
| 20260831133331 | 67 | 45 | 0.0 | 0.0 | 0.00 | 1.17 | 0.87 | 85 | 1010.3 |
| 20260831132829 | 67 | 44 | 0.0 | 0.0 | 0.00 | 1.17 | 0.87 | 85 | 1010.2 |
| 20260831132556 | 67 | 44 | 0.0 | 0.0 | 0.00 | 1.17 | 0.87 | 85 | 1010.3 |
| 20260831131800 | 67 | 44 | 0.0 | 0.0 | 0.00 | 1.17 | 0.87 | 85 | 1010.4 |
| 20260831131527 | 67 | 44 | 0.0 | 0.0 | 0.00 | 1.17 | 0.87 | 85 | 1010.5 |
| 20260831130754 | 66 | 44 | 0.0 | 0.0 | 0.00 | 1.17 | 0.87 | 85 | 1010.5 |
| 20260831130227 | 66 | 44 | 0.0 | 2.0 | 0.00 | 1.17 | 0.87 | 85 | 1010.6 |
| 20260831125726 | 66 | 44 | 0.0 | 2.0 | 0.00 | 1.17 | 0.87 | 85 | 1010.7 |
| 20260831125439 | 66 | 44 | 0.0 | 1.0 | 0.00 | 1.17 | 0.87 | 85 | 1010.7 |
| 20260831124706 | 66 | 44 | 0.0 | 2.0 | 0.00 | 1.17 | 0.87 | 85 | 1010.7 |
| 20260831124206 | 66 | 44 | 0.0 | 2.0 | 0.00 | 1.17 | 0.87 | 85 | 1010.6 |
| 20260831123704 | 66 | 44 | 0.0 | 1.0 | 0.00 | 1.17 | 0.87 | 85 | 1010.7 |
| 20260831123208 | 66 | 44 | 0.0 | 0.0 | 0.00 | 1.17 | 0.87 | 85 | 1010.6 |
| 20260831122642 | 66 | 44 | 0.0 | 1.0 | 0.00 | 1.17 | 0.87 | 85 | 1010.7 |
| 20260831122139 | 66 | 44 | 0.0 | 3.0 | 0.00 | 1.17 | 0.87 | 85 | 1010.6 |
| 20260831121615 | 66 | 44 | 0.0 | 3.0 | 0.00 | 1.17 | 0.87 | 85 | 1010.4 |
| 20260831121048 | 66 | 42 | 0.0 | 2.0 | 0.00 | 1.17 | 0.87 | 85 | 1010.7 |
| 20260831120521 | 66 | 43 | 1.0 | 2.0 | 0.00 | 1.17 | 0.87 | 85 | 1010.5 |
| 20260831120009 | 66 | 40 | 1.0 | 2.0 | 0.00 | 1.17 | 0.87 | 85 | 1010.4 |
| 20260831120005 | 66 | 42 | 1.0 | 2.0 | 0.00 | 1.17 | 0.87 | 85 | 1010.4 |
| 20260831115003 | 65 | 40 | 1.0 | 5.0 | 0.00 | 1.17 | 0.87 | 85 | 1010.5 |
| 20260831114506 | 65 | 39 | 1.0 | 5.0 | 0.00 | 1.17 | 0.87 | 85 | 1010.4 |
| 20260831113946 | 65 | 40 | 2.0 | 5.0 | 0.00 | 1.17 | 0.87 | 85 | 1010.4 |
| 20260831113445 | 65 | 41 | 2.0 | 5.0 | 0.00 | 1.17 | 0.87 | 85 | 1010.2 |
| 20260831113215 | 65 | 70 | 1.0 | 5.0 | 0.00 | 1.17 | 0.87 | 85 | 1010.0 |
| 20260831112447 | 65 | 73 | 1.0 | 6.0 | 0.00 | 1.17 | 0.87 | 85 | 1010.0 |
| 20260831111939 | 65 | 43 | 1.0 | 6.0 | 0.00 | 1.17 | 0.87 | 85 | 1010.1 |
| 20260831111709 | 65 | 24 | 3.0 | 10.0 | 0.00 | 1.17 | 0.87 | 85 | 1010.2 |
| 20260831110927 | 65 | 59 | 4.0 | 10.0 | 0.00 | 1.17 | 0.87 | 85 | 1010.1 |
| 20260831110402 | 65 | 54 | 5.0 | 10.0 | 0.00 | 1.17 | 0.87 | 85 | 1009.9 |
| 20260831110110 | 65 | 87 | 5.0 | 9.0 | 0.00 | 1.17 | 0.87 | 85 | 1009.7 |
| 20260831105322 | 65 | 77 | 2.0 | 9.0 | 0.00 | 1.17 | 0.87 | 85 | 1009.9 |
| 20260831104800 | 65 | 63 | 1.0 | 8.0 | 0.00 | 1.17 | 0.87 | 85 | 1009.9 |
| 20260831104242 | 65 | 62 | 2.0 | 8.0 | 0.01 | 1.17 | 0.87 | 85 | 1010.1 |
| 20260831104013 | 65 | 72 | 2.0 | 8.0 | 0.04 | 1.17 | 0.87 | 85 | 1010.1 |
| 20260831103510 | 65 | 60 | 1.0 | 4.0 | 0.12 | 1.17 | 0.87 | 85 | 1010.3 |
| 20260831102737 | 65 | 64 | 2.0 | 6.0 | 0.40 | 1.17 | 0.87 | 85 | 1010.3 |
| 20260831102235 | 65 | 63 | 2.0 | 6.0 | 0.66 | 1.17 | 0.87 | 85 | 1010.1 |
| 20260831101736 | 65 | 36 | 2.0 | 8.0 | 0.69 | 1.17 | 0.87 | 85 | 1010.2 |
| 20260831101213 | 65 | 46 | 2.0 | 8.0 | 0.69 | 1.17 | 0.87 | 85 | 1010.4 |
| 20260831100712 | 64 | 73 | 2.0 | 8.0 | 0.70 | 1.17 | 0.87 | 85 | 1010.4 |
| 20260831100210 | 64 | 74 | 3.0 | 9.0 | 0.70 | 1.17 | 0.87 | 85 | 1010.3 |
| 20260831095708 | 64 | 111 | 5.0 | 12.0 | 0.70 | 1.17 | 0.87 | 85 | 1010.2 |
| 20260831095202 | 64 | 62 | 5.0 | 15.0 | 0.70 | 1.17 | 0.87 | 85 | 1010.1 |
| 20260831094907 | 64 | 68 | 6.0 | 15.0 | 0.69 | 1.16 | 0.86 | 84 | 1010.0 |
| 20260831094134 | 65 | 69 | 6.0 | 11.0 | 0.69 | 1.16 | 0.86 | 84 | 1009.9 |
| 20260831093631 | 65 | 119 | 5.0 | 11.0 | 0.65 | 1.12 | 0.83 | 84 | 1010.0 |
| 20260831093104 | 65 | 78 | 3.0 | 8.0 | 0.47 | 0.94 | 0.66 | 85 | 1010.4 |
| 20260831092534 | 65 | 165 | 3.0 | 10.0 | 0.17 | 0.64 | 0.34 | 85 | 1011.4 |
| 20260831092034 | 65 | 58 | 4.0 | 10.0 | 0.01 | 0.48 | 0.18 | 85 | 1011.0 |
| 20260831091521 | 65 | 92 | 4.0 | 9.0 | 0.01 | 0.48 | 0.18 | 85 | 1010.4 |
| 20260831091019 | 65 | 23 | 4.0 | 9.0 | 0.00 | 0.47 | 0.17 | 85 | 1010.2 |
| 20260831090454 | 65 | 56 | 4.0 | 9.0 | 0.00 | 0.47 | 0.17 | 85 | 1010.2 |
| 20260831085925 | 65 | 68 | 4.0 | 10.0 | 0.00 | 0.47 | 0.17 | 85 | 1010.1 |
| 20260831085652 | 65 | 66 | 4.0 | 10.0 | 0.00 | 0.47 | 0.17 | 85 | 1010.3 |
| 20260831085150 | 65 | 51 | 5.0 | 12.0 | 0.00 | 0.47 | 0.17 | 85 | 1010.4 |
| 20260831084352 | 65 | 49 | 5.0 | 12.0 | 0.00 | 0.47 | 0.17 | 85 | 1010.2 |
| 20260831083842 | 65 | 16 | 4.0 | 9.0 | 0.00 | 0.47 | 0.17 | 85 | 1010.3 |
| 20260831083314 | 65 | 64 | 5.0 | 9.0 | 0.00 | 0.47 | 0.17 | 85 | 1010.3 |
| 20260831082749 | 65 | 49 | 3.0 | 9.0 | 0.00 | 0.47 | 0.17 | 85 | 1009.9 |
| 20260831082235 | 65 | 68 | 3.0 | 7.0 | 0.00 | 0.47 | 0.17 | 85 | 1009.9 |
| 20260831082009 | 64 | 92 | 3.0 | 7.0 | 0.00 | 0.47 | 0.17 | 84 | 1010.0 |
| 20260831081734 | 64 | 80 | 2.0 | 6.0 | 0.00 | 0.47 | 0.17 | 84 | 1009.9 |
| 20260831080715 | 64 | 74 | 2.0 | 9.0 | 0.00 | 0.47 | 0.17 | 84 | 1010.4 |
| 20260831080709 | 64 | 58 | 3.0 | 7.0 | 0.00 | 0.47 | 0.17 | 84 | 1010.3 |
| 20260831075705 | 64 | 113 | 2.0 | 9.0 | 0.00 | 0.47 | 0.17 | 84 | 1010.3 |
| 20260831075157 | 64 | 80 | 5.0 | 12.0 | 0.00 | 0.47 | 0.17 | 85 | 1010.1 |
| 20260831074925 | 64 | 44 | 5.0 | 10.0 | 0.00 | 0.47 | 0.17 | 85 | 1010.1 |
| 20260831074128 | 64 | 63 | 4.0 | 12.0 | 0.00 | 0.47 | 0.17 | 84 | 1010.2 |
| 20260831073856 | 64 | 71 | 4.0 | 10.0 | 0.00 | 0.47 | 0.17 | 85 | 1010.5 |
| 20260831073059 | 64 | 74 | 4.0 | 10.0 | 0.00 | 0.47 | 0.17 | 84 | 1010.7 |
| 20260831072557 | 64 | 88 | 4.0 | 11.0 | 0.00 | 0.47 | 0.17 | 84 | 1011.0 |
| 20260831072031 | 64 | 69 | 5.0 | 12.0 | 0.00 | 0.47 | 0.17 | 84 | 1011.1 |
| 20260831071527 | 64 | 76 | 5.0 | 12.0 | 0.00 | 0.47 | 0.17 | 84 | 1011.0 |
| 20260831071001 | 64 | 107 | 6.0 | 15.0 | 0.00 | 0.47 | 0.17 | 84 | 1011.1 |
| 20260831070434 | 64 | 32 | 6.0 | 15.0 | 0.01 | 0.47 | 0.17 | 84 | 1011.1 |
| 20260831070227 | 64 | 51 | 7.0 | 14.0 | 0.01 | 0.47 | 0.17 | 84 | 1010.9 |
| 20260831065658 | 63 | 83 | 7.0 | 14.0 | 0.02 | 0.47 | 0.17 | 84 | 1010.9 |
| 20260831064925 | 63 | 77 | 7.0 | 16.0 | 0.03 | 0.47 | 0.17 | 84 | 1011.0 |
| 20260831064705 | 63 | 42 | 8.0 | 16.0 | 0.05 | 0.47 | 0.17 | 84 | 1011.1 |
| 20260831063919 | 64 | 76 | 7.0 | 14.0 | 0.08 | 0.47 | 0.17 | 84 | 1011.1 |
| 20260831063351 | 64 | 69 | 8.0 | 19.0 | 0.10 | 0.47 | 0.17 | 84 | 1011.0 |
| 20260831062849 | 64 | 60 | 7.0 | 19.0 | 0.13 | 0.47 | 0.17 | 84 | 1011.2 |
| 20260831062346 | 64 | 82 | 7.0 | 16.0 | 0.15 | 0.47 | 0.17 | 84 | 1011.3 |
| 20260831062051 | 64 | 70 | 5.0 | 14.0 | 0.17 | 0.47 | 0.17 | 84 | 1011.9 |
| 20260831061927 | 64 | 55 | 6.0 | 16.0 | 0.16 | 0.47 | 0.17 | 84 | 1011.5 |
| 20260831060814 | 64 | 88 | 6.0 | 14.0 | 0.16 | 0.46 | 0.16 | 83 | 1011.9 |
| 20260831060312 | 64 | 91 | 7.0 | 19.0 | 0.16 | 0.46 | 0.16 | 83 | 1011.9 |
| 20260831055745 | 65 | 85 | 8.0 | 18.0 | 0.16 | 0.46 | 0.16 | 83 | 1012.1 |
| 20260831055217 | 65 | 69 | 8.0 | 18.0 | 0.15 | 0.45 | 0.15 | 83 | 1012.3 |
| 20260831054716 | 65 | 66 | 6.0 | 14.0 | 0.13 | 0.43 | 0.13 | 83 | 1012.5 |
| 20260831054147 | 65 | 71 | 6.0 | 14.0 | 0.11 | 0.41 | 0.11 | 83 | 1012.6 |
| 20260831053644 | 65 | 67 | 5.0 | 14.0 | 0.08 | 0.38 | 0.08 | 83 | 1012.9 |
| 20260831053118 | 65 | 76 | 4.0 | 14.0 | 0.06 | 0.35 | 0.05 | 83 | 1012.9 |
| 20260831052615 | 65 | 24 | 6.0 | 14.0 | 0.03 | 0.32 | 0.03 | 83 | 1012.8 |
| 20260831052550 | 65 | 34 | 7.0 | 14.0 | 0.05 | 0.32 | 0.02 | 82 | 1012.5 |
| 20260831051545 | 65 | 94 | 6.0 | 14.0 | 0.06 | 0.31 | 0.01 | 82 | 1012.5 |
| 20260831051014 | 65 | 89 | 4.0 | 10.0 | 0.12 | 0.30 | 0.00 | 82 | 1012.6 |
| 20260831050506 | 65 | 61 | 3.0 | 9.0 | 0.23 | 0.30 | 0.00 | 82 | 1012.8 |
| 20260831045937 | 66 | 56 | 3.0 | 11.0 | 0.24 | 0.30 | 0.30 | 82 | 1013.1 |
| 20260831045439 | 66 | 52 | 5.0 | 11.0 | 0.24 | 0.30 | 0.30 | 82 | 1013.2 |
| 20260831044910 | 66 | 40 | 5.0 | 11.0 | 0.24 | 0.30 | 0.30 | 83 | 1012.9 |
| 20260831044904 | 66 | 70 | 5.0 | 12.0 | 0.24 | 0.30 | 0.30 | 83 | 1013.0 |
| 20260831043859 | 66 | 65 | 6.0 | 12.0 | 0.24 | 0.30 | 0.30 | 82 | 1012.7 |
| 20260831043340 | 66 | 51 | 6.0 | 13.0 | 0.24 | 0.30 | 0.30 | 82 | 1012.7 |
| 20260831042837 | 65 | 72 | 6.0 | 18.0 | 0.23 | 0.29 | 0.29 | 82 | 1012.7 |
| 20260831042339 | 65 | 16 | 7.0 | 18.0 | 0.21 | 0.27 | 0.28 | 81 | 1012.9 |
| 20260831042107 | 65 | 80 | 7.0 | 15.0 | 0.20 | 0.26 | 0.26 | 80 | 1012.8 |
| 20260831040806 | 65 | 350 | 3.0 | 8.0 | 0.05 | 0.11 | 0.13 | 79 | 1013.5 |
| 20260831040301 | 65 | 45 | 4.0 | 9.0 | 0.00 | 0.06 | 0.06 | 78 | 1012.9 |
| 20260831035800 | 65 | 5 | 4.0 | 10.0 | 0.00 | 0.06 | 0.06 | 78 | 1013.0 |
| 20260831035255 | 65 | 74 | 5.0 | 10.0 | 0.00 | 0.06 | 0.06 | 78 | 1013.0 |
| 20260831034753 | 64 | 23 | 4.0 | 10.0 | 0.00 | 0.06 | 0.06 | 78 | 1013.3 |
| 20260831034229 | 64 | 57 | 4.0 | 10.0 | 0.00 | 0.06 | 0.06 | 77 | 1013.2 |
| 20260831033712 | 64 | 36 | 5.0 | 12.0 | 0.00 | 0.06 | 0.06 | 77 | 1013.1 |
| 20260831033208 | 64 | 28 | 5.0 | 12.0 | 0.00 | 0.06 | 0.06 | 76 | 1013.3 |
| 20260831032641 | 64 | 67 | 4.0 | 9.0 | 0.00 | 0.06 | 0.06 | 76 | 1013.4 |
| 20260831032139 | 64 | 86 | 5.0 | 10.0 | 0.00 | 0.06 | 0.06 | 76 | 1013.4 |
| 20260831031635 | 64 | 78 | 5.0 | 10.0 | 0.00 | 0.06 | 0.06 | 76 | 1013.4 |
| 20260831031109 | 64 | 61 | 5.0 | 10.0 | 0.00 | 0.06 | 0.06 | 76 | 1013.3 |
| 20260831030558 | 64 | 75 | 5.0 | 15.0 | 0.00 | 0.06 | 0.06 | 76 | 1013.3 |
| 20260831030326 | 64 | 72 | 6.0 | 15.0 | 0.00 | 0.06 | 0.06 | 76 | 1013.2 |
| 20260831025527 | 64 | 40 | 6.0 | 15.0 | 0.00 | 0.06 | 0.06 | 76 | 1013.1 |
| 20260831025025 | 64 | 49 | 6.0 | 15.0 | 0.00 | 0.06 | 0.06 | 76 | 1013.3 |
| 20260831024457 | 64 | 90 | 6.0 | 15.0 | 0.00 | 0.06 | 0.06 | 76 | 1013.5 |
| 20260831023956 | 64 | 17 | 7.0 | 15.0 | 0.00 | 0.06 | 0.06 | 76 | 1013.6 |
| 20260831023454 | 64 | 78 | 7.0 | 15.0 | 0.00 | 0.06 | 0.06 | 76 | 1013.6 |
| 20260831022955 | 64 | 65 | 7.0 | 15.0 | 0.00 | 0.06 | 0.06 | 76 | 1013.6 |
| 20260831022722 | 64 | 119 | 7.0 | 15.0 | 0.00 | 0.06 | 0.06 | 76 | 1013.5 |
| 20260831021955 | 63 | 74 | 7.0 | 17.0 | 0.00 | 0.06 | 0.06 | 75 | 1013.5 |
| 20260831021429 | 63 | 69 | 8.0 | 17.0 | 0.00 | 0.06 | 0.06 | 75 | 1013.6 |
| 20260831020901 | 63 | 42 | 9.0 | 19.0 | 0.00 | 0.06 | 0.06 | 75 | 1013.4 |
| 20260831020359 | 63 | 75 | 9.0 | 19.0 | 0.00 | 0.06 | 0.06 | 74 | 1013.4 |
| 20260831015832 | 64 | 57 | 9.0 | 20.0 | 0.00 | 0.06 | 0.06 | 74 | 1013.2 |
| 20260831015333 | 64 | 82 | 10.0 | 19.0 | 0.00 | 0.06 | 0.06 | 74 | 1013.3 |
| 20260831014821 | 64 | 69 | 11.0 | 20.0 | 0.00 | 0.06 | 0.06 | 74 | 1013.3 |
| 20260831014319 | 64 | 63 | 10.0 | 19.0 | 0.00 | 0.06 | 0.06 | 73 | 1013.3 |
| 20260831013752 | 64 | 105 | 9.0 | 18.0 | 0.00 | 0.06 | 0.06 | 73 | 1013.3 |
| 20260831013251 | 64 | 61 | 7.0 | 17.0 | 0.00 | 0.06 | 0.06 | 73 | 1013.3 |
| 20260831013000 | 64 | 117 | 8.0 | 14.0 | 0.00 | 0.06 | 0.06 | 73 | 1013.2 |
| 20260831012225 | 64 | 94 | 9.0 | 18.0 | 0.00 | 0.06 | 0.06 | 73 | 1013.2 |
| 20260831011659 | 64 | 44 | 10.0 | 18.0 | 0.00 | 0.06 | 0.06 | 73 | 1013.1 |
| 20260831011133 | 64 | 54 | 8.0 | 17.0 | 0.00 | 0.06 | 0.06 | 73 | 1013.2 |
| 20260831010609 | 64 | 40 | 7.0 | 18.0 | 0.00 | 0.06 | 0.06 | 73 | 1013.2 |
| 20260831010050 | 65 | 63 | 6.0 | 17.0 | 0.00 | 0.06 | 0.06 | 73 | 1013.1 |
| 20260831005552 | 65 | 71 | 6.0 | 15.0 | 0.00 | 0.06 | 0.06 | 73 | 1013.0 |
| 20260831005032 | 65 | 83 | 7.0 | 15.0 | 0.00 | 0.06 | 0.06 | 73 | 1013.0 |
| 20260831004527 | 65 | 88 | 6.0 | 15.0 | 0.00 | 0.06 | 0.06 | 73 | 1012.9 |
| 20260831004026 | 65 | 112 | 6.0 | 12.0 | 0.00 | 0.06 | 0.06 | 73 | 1013.0 |
| 20260831003524 | 65 | 78 | 6.0 | 15.0 | 0.00 | 0.06 | 0.06 | 73 | 1013.1 |
| 20260831003245 | 65 | 61 | 7.0 | 16.0 | 0.00 | 0.06 | 0.06 | 73 | 1013.3 |
| 20260831002746 | 65 | 88 | 6.0 | 16.0 | 0.00 | 0.06 | 0.06 | 73 | 1013.3 |
| 20260831002013 | 65 | 59 | 7.0 | 18.0 | 0.00 | 0.06 | 0.06 | 73 | 1013.4 |
| 20260831001511 | 65 | 57 | 7.0 | 18.0 | 0.00 | 0.06 | 0.06 | 73 | 1013.6 |
| 20260831001010 | 64 | 65 | 7.0 | 17.0 | 0.00 | 0.06 | 0.06 | 73 | 1013.6 |
| 20260831000507 | 64 | 79 | 7.0 | 17.0 | 0.00 | 0.06 | 0.06 | 73 | 1013.6 |
| 20260831000009 | 64 | 37 | 8.0 | 17.0 | 0.00 | 0.06 | 0.06 | 73 | 1013.6 |
| 20260830235509 | 64 | 83 | 9.0 | 17.0 | 0.00 | 0.06 | 0.06 | 73 | 1013.5 |
| 20260830234946 | 64 | 38 | 9.0 | 21.0 | 0.00 | 0.06 | 0.06 | 73 | 1013.6 |
| 20260830234658 | 64 | 85 | 8.0 | 21.0 | 0.00 | 0.06 | 0.06 | 73 | 1013.7 |
| 20260830233908 | 64 | 77 | 8.0 | 17.0 | 0.00 | 0.06 | 0.06 | 73 | 1013.6 |
| 20260830233349 | 64 | 106 | 8.0 | 17.0 | 0.00 | 0.06 | 0.06 | 73 | 1013.8 |
| 20260830232850 | 64 | 90 | 7.0 | 20.0 | 0.00 | 0.06 | 0.06 | 73 | 1013.8 |
| 20260830232339 | 64 | 61 | 8.0 | 18.0 | 0.00 | 0.06 | 0.06 | 73 | 1014.2 |
| 20260830231837 | 64 | 82 | 10.0 | 21.0 | 0.00 | 0.06 | 0.06 | 73 | 1014.1 |
| 20260830231341 | 64 | 76 | 9.0 | 18.0 | 0.00 | 0.06 | 0.06 | 72 | 1013.9 |
| 20260830230838 | 65 | 105 | 9.0 | 18.0 | 0.00 | 0.06 | 0.06 | 72 | 1013.8 |
| 20260830230338 | 65 | 45 | 10.0 | 19.0 | 0.00 | 0.06 | 0.06 | 73 | 1013.9 |
| 20260830225837 | 65 | 67 | 10.0 | 19.0 | 0.00 | 0.06 | 0.06 | 73 | 1013.9 |
| 20260830225309 | 65 | 63 | 9.0 | 21.0 | 0.00 | 0.06 | 0.06 | 72 | 1013.9 |
| 20260830224812 | 65 | 59 | 8.0 | 21.0 | 0.00 | 0.06 | 0.06 | 72 | 1013.9 |
| 20260830224309 | 66 | 97 | 8.0 | 18.0 | 0.00 | 0.06 | 0.06 | 72 | 1013.8 |
| 20260830223806 | 66 | 101 | 7.0 | 18.0 | 0.00 | 0.06 | 0.06 | 71 | 1013.8 |
| 20260830223244 | 66 | 59 | 7.0 | 18.0 | 0.00 | 0.06 | 0.06 | 72 | 1013.5 |
| 20260830222718 | 66 | 113 | 9.0 | 18.0 | 0.00 | 0.06 | 0.06 | 72 | 1013.6 |
| 20260830222215 | 66 | 71 | 11.0 | 21.0 | 0.00 | 0.06 | 0.06 | 71 | 1013.7 |
| 20260830221712 | 67 | 66 | 10.0 | 21.0 | 0.00 | 0.06 | 0.06 | 71 | 1013.8 |
| 20260830221212 | 67 | 63 | 10.0 | 20.0 | 0.00 | 0.06 | 0.06 | 71 | 1013.8 |
| 20260830220644 | 67 | 64 | 9.0 | 20.0 | 0.00 | 0.06 | 0.06 | 70 | 1013.8 |
| 20260830220127 | 67 | 76 | 9.0 | 18.0 | 0.00 | 0.06 | 0.06 | 70 | 1013.8 |
| 20260830215601 | 67 | 79 | 10.0 | 18.0 | 0.00 | 0.06 | 0.06 | 70 | 1013.7 |
| 20260830215036 | 67 | 63 | 7.0 | 17.0 | 0.00 | 0.06 | 0.06 | 70 | 1013.5 |
| 20260830214532 | 67 | 45 | 6.0 | 17.0 | 0.00 | 0.06 | 0.06 | 70 | 1013.7 |
| 20260830214030 | 67 | 82 | 8.0 | 18.0 | 0.00 | 0.06 | 0.06 | 71 | 1014.0 |
| 20260830213502 | 67 | 43 | 9.0 | 18.0 | 0.00 | 0.06 | 0.06 | 71 | 1014.0 |
| 20260830213002 | 67 | 126 | 8.0 | 19.0 | 0.00 | 0.06 | 0.06 | 71 | 1014.0 |
| 20260830212432 | 67 | 65 | 7.0 | 19.0 | 0.00 | 0.06 | 0.06 | 71 | 1014.0 |
| 20260830212137 | 66 | 98 | 8.0 | 18.0 | 0.00 | 0.06 | 0.06 | 71 | 1013.9 |
| 20260830211340 | 66 | 63 | 8.0 | 20.0 | 0.00 | 0.06 | 0.06 | 71 | 1014.1 |
| 20260830210812 | 66 | 70 | 8.0 | 20.0 | 0.00 | 0.06 | 0.06 | 71 | 1014.2 |
| 20260830210541 | 66 | 75 | 8.0 | 19.0 | 0.00 | 0.06 | 0.06 | 71 | 1014.3 |
| 20260830205743 | 66 | 67 | 9.0 | 19.0 | 0.00 | 0.06 | 0.06 | 71 | 1014.3 |
| 20260830205244 | 66 | 90 | 9.0 | 18.0 | 0.00 | 0.06 | 0.06 | 71 | 1014.4 |
| 20260830204941 | 66 | 82 | 10.0 | 18.0 | 0.00 | 0.06 | 0.06 | 71 | 1014.3 |
| 20260830204204 | 66 | 90 | 9.0 | 17.0 | 0.00 | 0.06 | 0.06 | 71 | 1014.4 |
| 20260830203702 | 66 | 98 | 8.0 | 20.0 | 0.00 | 0.06 | 0.06 | 71 | 1014.4 |
| 20260830203149 | 66 | 69 | 9.0 | 20.0 | 0.00 | 0.06 | 0.06 | 71 | 1014.4 |
| 20260830202651 | 66 | 112 | 12.0 | 21.0 | 0.00 | 0.06 | 0.06 | 71 | 1014.5 |
| 20260830202358 | 66 | 69 | 12.0 | 21.0 | 0.00 | 0.06 | 0.06 | 71 | 1014.5 |
| 20260830201828 | 67 | 74 | 10.0 | 21.0 | 0.00 | 0.06 | 0.06 | 70 | 1014.4 |
| 20260830201056 | 67 | 83 | 10.0 | 19.0 | 0.00 | 0.06 | 0.06 | 69 | 1014.4 |
| 20260830200553 | 67 | 82 | 10.0 | 21.0 | 0.00 | 0.06 | 0.06 | 69 | 1014.3 |
| 20260830200050 | 67 | 85 | 9.0 | 21.0 | 0.00 | 0.06 | 0.06 | 69 | 1014.3 |
| 20260830195546 | 67 | 71 | 10.0 | 21.0 | 0.00 | 0.06 | 0.06 | 69 | 1014.4 |
| 20260830195043 | 67 | 94 | 11.0 | 22.0 | 0.00 | 0.06 | 0.06 | 69 | 1014.4 |
| 20260830194522 | 67 | 89 | 10.0 | 21.0 | 0.00 | 0.06 | 0.06 | 69 | 1014.6 |
| 20260830193948 | 67 | 74 | 10.0 | 18.0 | 0.00 | 0.06 | 0.06 | 69 | 1014.5 |
| 20260830193420 | 67 | 101 | 11.0 | 24.0 | 0.00 | 0.06 | 0.06 | 69 | 1014.3 |
| 20260830192854 | 67 | 82 | 9.0 | 24.0 | 0.00 | 0.06 | 0.06 | 69 | 1014.3 |
| 20260830192326 | 67 | 67 | 9.0 | 22.0 | 0.00 | 0.06 | 0.06 | 69 | 1014.4 |
| 20260830191824 | 67 | 111 | 8.0 | 16.0 | 0.00 | 0.06 | 0.06 | 69 | 1014.3 |
| 20260830191550 | 67 | 74 | 8.0 | 16.0 | 0.00 | 0.06 | 0.06 | 70 | 1014.5 |
| 20260830191048 | 67 | 105 | 7.0 | 19.0 | 0.00 | 0.06 | 0.06 | 70 | 1014.3 |
| 20260830190313 | 67 | 75 | 8.0 | 19.0 | 0.00 | 0.06 | 0.06 | 70 | 1014.3 |
| 20260830185816 | 67 | 78 | 9.0 | 18.0 | 0.00 | 0.06 | 0.06 | 71 | 1014.3 |
| 20260830185306 | 67 | 77 | 8.0 | 16.0 | 0.00 | 0.06 | 0.06 | 70 | 1014.4 |
| 20260830184801 | 67 | 66 | 8.0 | 16.0 | 0.00 | 0.06 | 0.06 | 70 | 1014.4 |
| 20260830184737 | 67 | 42 | 9.0 | 18.0 | 0.00 | 0.06 | 0.06 | 71 | 1014.4 |
| 20260830183706 | 66 | 51 | 9.0 | 18.0 | 0.00 | 0.06 | 0.06 | 71 | 1014.4 |
| 20260830183202 | 66 | 87 | 9.0 | 18.0 | 0.00 | 0.06 | 0.06 | 71 | 1014.3 |
| 20260830182700 | 66 | 63 | 9.0 | 17.0 | 0.00 | 0.06 | 0.06 | 71 | 1014.3 |
| 20260830182158 | 67 | 86 | 7.0 | 21.0 | 0.00 | 0.06 | 0.06 | 71 | 1014.2 |